AIZ1818 LLER-LLBG

Flight info

Callsign AIZ1818
Flight time N/A
Altitude 18000
Route NURIT J10 AMMIT
Aircraft E195/M-SDE3GILORVW/S

Departure

Time 2026-04-26 11:45
Airport Ramon International Airport (LLER)

Arrival

Time N/A
Airport Ben Gurion International Airport (LLBG)
Time Latitude Longitude Altitude Speed Heading
2026-04-26 11:08 29.72527 35.00789 296 ft 0 kts 283°
2026-04-26 11:10 29.72527 35.00790 296 ft 0 kts 283°
2026-04-26 11:16 29.72526 35.00790 296 ft 0 kts 283°
2026-04-26 11:16 29.72526 35.00791 296 ft 0 kts 283°
2026-04-26 11:25 29.72526 35.00792 296 ft 0 kts 283°
2026-04-26 11:33 29.72525 35.00796 301 ft 7 kts 283°
2026-04-26 11:33 29.72519 35.00826 300 ft 8 kts 283°
2026-04-26 11:33 29.72513 35.00853 297 ft 6 kts 284°
2026-04-26 11:34 29.72511 35.00879 299 ft 9 kts 242°
2026-04-26 11:34 29.72529 35.00897 300 ft 8 kts 197°
2026-04-26 11:34 29.72553 35.00905 300 ft 8 kts 193°
2026-04-26 11:36 29.72554 35.00905 300 ft 0 kts 193°
2026-04-26 11:38 29.72551 35.00904 300 ft 1 kts 193°
2026-04-26 11:38 29.72536 35.00899 297 ft 3 kts 197°
2026-04-26 11:39 29.72507 35.00891 299 ft 6 kts 194°
2026-04-26 11:39 29.72458 35.00885 296 ft 9 kts 171°
2026-04-26 11:39 29.72416 35.00957 296 ft 13 kts 103°
2026-04-26 11:39 29.72398 35.01065 296 ft 12 kts 82°
2026-04-26 11:40 29.72476 35.01120 296 ft 16 kts 14°
2026-04-26 11:40 29.72582 35.01151 296 ft 17 kts 13°
2026-04-26 11:40 29.72708 35.01186 296 ft 21 kts 14°
2026-04-26 11:40 29.72860 35.01229 296 ft 25 kts 13°
2026-04-26 11:41 29.73040 35.01279 296 ft 28 kts 13°
2026-04-26 11:42 29.74321 35.01677 296 ft 15 kts 86°
2026-04-26 11:43 29.74303 35.01764 297 ft 8 kts 107°
2026-04-26 11:43 29.74284 35.01829 296 ft 8 kts 118°
2026-04-26 11:43 29.74246 35.01838 296 ft 0 kts 194°
2026-04-26 11:43 29.74245 35.01838 296 ft 0 kts 194°
2026-04-26 11:44 29.74226 35.01832 297 ft 15 kts 197°
2026-04-26 11:44 29.73878 35.01735 296 ft 86 kts 193°
2026-04-26 11:44 29.73078 35.01533 316 ft 145 kts 189°
2026-04-26 11:44 29.72189 35.01298 878 ft 155 kts 195°
2026-04-26 11:45 29.71703 35.01165 1142 ft 170 kts 195°
2026-04-26 11:45 29.70411 35.00871 1569 ft 206 kts 194°
2026-04-26 11:46 29.68929 35.00562 2385 ft 223 kts 195°
2026-04-26 11:46 29.67634 34.99676 3601 ft 212 kts 232°
2026-04-26 11:46 29.67326 34.98090 4885 ft 209 kts 281°
2026-04-26 11:46 29.68178 34.96791 5823 ft 207 kts 329°